User: anonymous   Login
Location: Ceske Budejovice
(48.9830°N, 14.4670°E)
Time: 12:36:55
(UTC+02:00)
Language:

N. Korean satellite - Orbit

View from above orbital plane
View from above orbital plane
View from above satellite
View from above satellite

Ground track
Ground track

The orbit data is extracted from the following two-line orbital elements,

1 39026U 12072A   19166.91300540 +.00000996 +00000-0 +38524-4 0  9997
2 39026 097.2104 170.1517 0039845 110.2484 250.3047 15.27798569361118
Epoch (UTC): 15 June 2019 21:54:43
Eccentricity: 0.0039845
inclination: 97.2104°
perigee height: 455 km
apogee height: 510 km
right ascension of ascending node: 170.1517°
argument of perigee: 110.2484°
revolutions per day: 15.27798569
mean anomaly at epoch: 250.3047°
orbit number at epoch: 36111

The dashed part of the orbit path shows where the satellite is in the earth's shadow,  

DLR